Bryce Canyon, UT

9:01 PM MDT on May 25, 2018 (GMT -0600)
Bryce Canyon

Weather History for KBCE - August, 2014

Change the Weather History Date:

Saturday, August 9, 2014

  Actual Average Record
Temperature  
Mean Temperature 60 °F -  
Max Temperature 80 °F 80 °F 89 °F (1975)
Min Temperature 43 °F 47 °F 37 °F (1988)
Degree Days  
Heating Degree Days 4    
Growing Degree Days 10 (Base 50)    
Moisture  
Dew Point 32 °F    
Average Humidity 38    
Maximum Humidity 62    
Minimum Humidity 17    
Precipitation  
Precipitation 0.00 in - - ()
Sea Level Pressure  
Sea Level Pressure 30.02 in    
Wind  
Wind Speed 8 mph (West)    
Max Wind Speed 13 mph    
Max Gust Speed 16 mph    
Visibility 10 miles    
Events      
Averages and records for this station are not official NWS values.
T = Trace of Precipitation, MM = Missing Value Source: NWS Daily Summary

Daily Weather History Graph

Daily Weather History Graph

Search for Another Location

Airport or City:

Astronomy

Aug. 09, 2014 Rise Set
Actual Time 6:39 AM MDT 8:28 PM MDT
Civil Twilight 6:10 AM MDT 8:56 PM MDT
Nautical Twilight 5:36 AM MDT 9:31 PM MDT
Astronomical Twilight 4:59 AM MDT 10:07 PM MDT
Moon 7:33 PM MDT (8/9) 5:24 AM MDT (8/9)
Length of Visible Light 14h 46m
Length of Day
13h 49m
Waxing Gibbous, 98% of the Moon is Illuminated
Aug 9
Waxing Gibbous
Aug 10
Full
Aug 17
Last Quarter
Aug 25
New
Sep 2
First Quarter

Hourly Weather History & Observations

Time (MDT) Temp. Windchill Dew Point Humidity Pressure Visibility Wind Dir Wind Speed Gust Speed Precip Events Conditions
12:53 AM 46.9 °F - 30.9 °F 54% 30.01 in 10.0 mi West 5.8 mph - N/A   Clear
1:53 AM 46.9 °F - 30.9 °F 54% 30.01 in 10.0 mi West 8.1 mph - N/A   Clear
2:53 AM 46.9 °F - 30.9 °F 54% 30.01 in 10.0 mi West 10.4 mph - N/A   Clear
3:53 AM 45.0 °F 40.1 °F 30.9 °F 58% 30.01 in 10.0 mi West 9.2 mph - N/A   Clear
4:53 AM 43.0 °F 38.2 °F 30.9 °F 62% 30.01 in 10.0 mi West 8.1 mph - N/A   Clear
5:53 AM 43.0 °F 38.2 °F 30.9 °F 62% 30.02 in 10.0 mi West 8.1 mph - N/A   Clear
6:53 AM 43.0 °F 37.2 °F 30.9 °F 62% 30.06 in 10.0 mi West 10.4 mph - N/A   Clear
7:53 AM 50.0 °F - 33.1 °F 52% 30.05 in 10.0 mi West 9.2 mph - N/A   Clear
8:53 AM 61.0 °F - 35.1 °F 38% 30.05 in 10.0 mi West 4.6 mph - N/A   Clear
9:53 AM 70.0 °F - 33.1 °F 26% 30.03 in 10.0 mi WNW 9.2 mph - N/A   Clear
10:53 AM 73.0 °F - 33.1 °F 23% 30.04 in 10.0 mi Variable 3.5 mph - N/A   Clear
11:53 AM 75.0 °F - 33.1 °F 22% 30.05 in 10.0 mi NW 8.1 mph 16.1 mph N/A   Clear
12:53 PM 75.9 °F - 30.0 °F 19% 30.04 in 10.0 mi Variable 5.8 mph - N/A   Clear
1:53 PM 78.1 °F - 30.0 °F 17% 30.01 in 10.0 mi Variable 3.5 mph - N/A   Clear
2:53 PM 78.1 °F - 30.9 °F 18% 30.01 in 10.0 mi East 5.8 mph - N/A   Partly Cloudy
3:53 PM 75.9 °F - 30.0 °F 19% 30.01 in 10.0 mi WSW 8.1 mph - N/A   Clear
4:53 PM 75.9 °F - 32.0 °F 20% 30.00 in 10.0 mi Variable 6.9 mph - N/A   Clear
5:53 PM 77.0 °F - 34.0 °F 21% 29.99 in 10.0 mi West 12.7 mph - N/A   Partly Cloudy
6:53 PM 75.0 °F - 33.1 °F 22% 30.00 in 10.0 mi West 12.7 mph - N/A   Clear
7:53 PM 72.0 °F - 34.0 °F 25% 29.98 in 10.0 mi WNW 8.1 mph - N/A   Clear
10:53 PM 53.1 °F - 37.0 °F 55% 30.01 in 10.0 mi WSW 8.1 mph - N/A   Partly Cloudy
11:53 PM 54.0 °F - 36.0 °F 51% 30.01 in 10.0 mi NW 4.6 mph - N/A   Partly Cloudy